Temperature
16 15 15 14 14 14 14 14 14 13 13 13 12 12 12 12 12 12 12 12 12 12 11 11 11 11 10 10 10 10 10 9 9 9 9 9 10 10 10 9 9 9 9
15 15 14 14 14 14 14 14 14 14 14 14 14 13 13 13 13 13 12 12 12 12 12 11 11 11 10 10 10 10 10 9 9 9 9 9 9 10 10 10 9 9 9
15 15 15 15 15 14 15 15 15 14 14 14 13 13 12 12 12 12 12 12 12 12 12 12 11 11 11 10 10 10 10 10 9 9 9 9 9 9 10 10 9 9 9
15 15 15 15 15 16 16 15 15 15 15 14 14 13 13 13 14 14 13 13 12 12 12 12 11 11 11 10 10 10 10 10 9 9 9 9 9 9 9 9 9 9 9
14 15 15 16 16 16 16 16 15 15 15 14 14 14 14 14 14 14 13 13 13 12 12 12 11 11 11 11 10 10 10 10 10 9 9 9 9 9 8 9 9 9 9
14 15 15 16 16 16 16 16 15 15 15 14 14 14 14 14 14 14 14 13 13 13 12 12 12 11 11 11 11 10 10 10 10 9 9 9 9 9 8 8 8 9 9
14 14 15 15 15 15 16 15 15 15 15 15 14 14 14 14 14 14 14 14 14 13 13 13 12 12 11 11 11 10 10 10 10 9 9 9 9 8 8 8 8 8 8
13 14 14 15 15 15 16 16 16 16 15 15 15 15 15 14 14 14 14 14 15 14 14 14 13 12 12 11 11 10 10 10 9 9 9 9 9 8 8 8 8 7 8
12 13 14 14 15 15 16 16 16 16 16 16 15 15 15 15 15 15 14 14 14 14 14 14 13 13 12 11 11 10 10 10 9 9 9 9 9 8 8 8 8 7 7
11 12 13 14 14 15 15 16 16 16 16 16 16 16 15 15 15 15 14 14 15 14 14 14 13 13 12 11 11 10 10 10 10 9 9 9 9 8 8 8 8 7 7
10 11 12 13 14 14 15 15 16 16 16 16 16 16 16 16 15 15 15 14 14 14 14 14 13 13 12 11 11 10 10 10 9 9 9 9 9 8 8 8 8 7 7
9 10 11 12 13 13 14 14 15 15 16 16 16 16 16 15 15 15 15 14 14 14 14 13 13 12 12 11 11 10 10 10 10 9 9 9 9 8 8 8 7 7 7
8 9 10 10 11 12 13 14 14 15 15 15 15 15 15 15 15 15 15 14 14 13 13 13 13 12 12 11 11 10 10 10 10 9 9 9 8 8 8 8 7 7 7
7 8 9 9 10 11 12 13 14 14 15 15 15 15 15 15 15 15 14 14 14 13 13 13 12 12 12 11 11 10 10 10 9 9 9 9 8 8 8 7 7 7 6
6 7 8 8 9 10 11 12 13 14 14 14 15 15 15 15 14 14 14 13 13 13 13 12 12 12 11 11 11 10 10 10 9 9 9 8 8 8 7 7 7 6 6
5 6 7 7 8 9 10 11 12 13 13 14 14 14 14 14 14 14 13 13 13 12 12 12 12 11 11 11 10 10 10 9 9 9 9 8 8 8 7 7 6 6 5
5 5 6 7 7 8 9 10 11 12 13 13 14 14 14 13 13 13 13 12 12 12 12 12 11 11 11 11 10 10 9 9 9 9 8 8 8 7 7 7 6 6 5
5 5 5 6 7 8 9 10 11 12 12 13 13 13 13 13 13 12 12 12 12 12 12 11 11 11 10 10 10 10 9 9 8 8 8 8 7 7 7 6 6 5 5
4 5 5 6 7 8 8 9 10 11 11 12 12 12 12 12 12 12 12 12 12 11 11 11 11 10 10 10 10 9 9 8 8 8 8 7 7 7 6 6 5 5 4
4 5 5 6 7 7 8 8 9 10 10 11 12 12 12 12 12 12 12 12 11 11 11 11 10 10 10 10 9 9 9 8 8 8 7 7 6 6 6 5 5 4 4
4 4 5 6 6 7 7 8 9 9 10 10 11 11 11 11 11 11 11 11 11 10 10 10 10 10 9 9 9 9 9 8 8 7 7 7 6 6 5 5 4 4 3
3 4 4 5 6 6 6 7 8 9 9 10 10 10 10 10 10 10 10 10 10 10 10 9 9 9 9 9 9 9 8 8 8 7 7 6 6 5 5 4 4 3 3
3 3 4 4 5 5 6 7 7 8 8 9 9 10 10 10 10 10 10 9 9 9 9 9 9 9 9 9 9 8 8 7 7 7 6 6 5 5 4 4 3 3 2
3 3 3 4 4 5 5 6 7 7 8 8 8 9 9 9 9 9 9 9 9 9 9 9 9 8 8 8 8 8 7 7 6 6 6 5 5 4 4 3 3 2 2
2 3 3 3 4 4 5 5 6 6 7 7 7 8 8 8 8 8 8 8 8 9 9 9 9 9 8 8 8 8 7 7 7 6 5 5 4 4 3 3 2 2 1
2 2 2 3 3 4 4 5 5 6 6 6 7 7 7 7 7 7 7 7 7 8 8 8 8 8 8 8 7 7 7 6 6 5 5 4 4 3 3 2 2 1 1
Wind_Speed
14 11 12 13 14 16 18 19 19 19 16 15 14 13 13 11 10 10 14 16 16 16 13 8 8 8 7 7 6 4 3 2 2 2 2 3 2 3 3 2 2 3 4
10 10 12 13 16 19 20 21 21 20 19 17 15 11 10 8 8 8 11 16 16 16 14 11 9 8 7 7 7 5 4 2 3 3 1 2 4 2 1 2 2 3 3
14 13 13 15 17 19 22 21 23 21 21 17 11 9 7 6 7 10 11 13 16 17 15 13 10 10 9 8 8 8 7 4 3 2 4 3 4 3 3 2 2 2 3
14 13 13 15 17 20 20 22 22 21 21 19 16 17 14 13 14 11 11 11 14 15 15 14 13 11 9 9 9 8 6 6 4 3 2 2 3 2 3 3 2 3 4
13 14 14 16 17 18 18 20 21 22 21 20 20 19 16 13 8 8 11 11 11 13 14 14 13 12 10 10 10 9 8 6 6 5 3 2 1 2 2 4 4 3 3
10 12 12 12 14 14 15 17 19 21 21 22 21 21 20 15 12 12 13 12 10 11 13 14 13 12 11 11 10 11 10 8 7 5 5 4 3 4 4 5 4 4 4
7 9 9 10 12 13 15 16 19 21 22 23 23 23 21 19 18 16 15 13 11 11 15 14 13 12 11 11 10 10 10 9 9 8 6 5 5 4 4 4 4 3 3
6 8 9 10 12 13 15 17 19 20 21 23 23 22 20 17 15 15 13 15 13 14 13 15 13 12 12 11 11 9 10 9 9 9 8 6 6 5 5 4 3 3 3
6 6 7 8 10 11 14 17 19 19 20 22 22 21 20 19 17 15 14 13 11 11 13 14 13 13 12 12 11 9 10 9 9 9 9 7 6 5 5 4 4 4 4
5 5 5 7 8 9 11 13 17 19 19 20 20 17 20 20 17 15 16 15 14 12 13 14 14 13 13 12 12 9 9 10 9 7 8 8 6 5 5 5 4 5 5
6 6 5 5 6 7 8 10 12 14 15 17 18 18 18 19 17 16 16 15 13 14 15 15 15 14 14 13 12 11 11 11 10 8 9 9 7 6 5 4 4 5 5
6 5 4 4 2 4 6 8 10 11 13 14 16 17 17 16 17 17 16 15 15 14 15 14 14 14 14 13 13 13 12 12 11 10 9 9 7 8 6 5 6 5 5
7 5 4 4 3 3 4 6 8 10 11 11 13 15 15 16 17 17 15 15 15 14 13 14 15 14 14 14 13 13 12 12 11 11 11 9 8 8 6 6 6 5 4
6 6 5 5 4 3 4 4 5 7 9 10 12 14 16 16 16 15 15 15 15 15 15 14 14 13 13 13 12 12 11 10 10 9 9 9 9 9 8 7 6 5 4
8 7 7 6 5 4 4 3 4 5 7 9 11 13 13 13 13 13 13 14 14 14 14 13 12 12 11 11 12 12 11 10 9 8 8 8 9 9 8 6 5 5 4
8 8 7 7 6 5 5 4 3 4 5 8 10 10 10 11 12 13 13 13 13 13 13 13 13 13 10 13 16 13 10 10 9 8 7 6 7 8 8 8 7 7 5
9 8 7 7 7 6 6 5 4 3 5 7 7 9 10 11 11 11 12 13 13 12 13 13 13 13 13 16 17 16 11 9 9 8 7 5 6 7 6 6 6 5 4
9 8 8 8 7 6 6 5 3 3 5 5 6 7 9 10 10 10 12 12 11 11 12 12 12 11 12 16 16 16 10 8 8 8 8 8 7 7 8 6 5 3 2
8 8 7 8 7 6 6 4 2 3 4 5 6 7 9 10 10 11 11 10 10 10 10 10 11 11 11 15 16 15 8 7 7 6 7 8 7 10 11 8 6 4 2
8 8 7 6 6 6 5 3 2 2 4 5 6 7 9 10 11 11 9 7 8 9 9 9 9 11 10 14 17 16 8 8 6 5 6 8 9 11 12 8 7 6 4
8 8 7 6 6 6 4 3 2 4 3 3 4 6 8 9 9 8 7 8 8 9 9 9 8 8 10 14 17 17 10 9 8 6 5 6 11 12 11 9 6 6 6
8 8 7 7 6 5 4 3 4 3 2 3 4 6 7 7 7 9 8 8 9 9 9 8 7 6 8 11 14 16 13 11 9 7 6 7 12 12 11 8 7 9 7
8 7 7 7 6 5 4 4 4 2 2 3 4 6 7 7 8 9 9 8 8 8 8 8 7 6 6 8 13 15 15 13 8 7 10 11 13 11 8 9 10 8 5
7 7 7 7 7 6 5 5 4 2 2 4 5 6 7 7 7 7 8 8 8 8 8 8 8 7 6 7 8 8 9 11 9 8 11 13 12 9 8 7 6 4 4
7 6 6 7 8 7 6 5 4 1 2 4 5 6 6 7 6 5 5 7 7 9 10 9 9 9 8 9 13 12 9 9 10 10 7 5 5 5 4 4 4 3 3
7 7 6 7 7 6 6 5 4 2 2 4 5 5 5 5 5 5 4 4 5 8 10 10 9 7 9 14 15 15 16 17 18 11 7 7 6 6 6 5 4 3 3
Wind_Direction
228 210 202 199 197 194 191 191 193 189 184 186 187 188 192 191 191 192 190 188 187 185 184 183 177 177 180 182 171 156 155 159 142 105 346 315 281 260 253 244 250 262 263
228 209 200 197 199 197 195 194 195 192 191 193 192 192 186 189 190 188 190 192 191 189 191 185 185 183 180 177 177 164 154 162 162 145 117 319 325 307 260 248 242 260 268
224 214 203 202 202 201 198 197 196 195 194 191 181 172 166 165 183 193 197 197 195 193 193 191 186 185 184 188 187 180 169 175 190 175 156 175 241 295 305 267 254 262 259
226 219 209 205 205 206 202 198 196 196 194 189 187 185 191 197 200 196 196 193 194 194 194 191 189 188 188 187 189 186 180 165 180 198 200 183 171 186 300 305 287 267 255
224 220 214 210 210 206 202 200 196 196 194 192 193 194 199 202 190 182 186 190 194 195 194 192 191 191 192 191 187 185 186 181 179 177 171 175 167 181 201 273 298 300 266
227 226 221 213 212 207 202 199 196 198 195 195 196 199 201 195 185 189 193 194 195 196 196 194 194 194 194 193 192 190 191 193 186 183 174 169 175 195 196 231 255 271 279
229 230 224 215 212 207 202 199 198 200 197 197 200 202 203 199 198 196 196 193 194 198 200 196 197 196 196 193 189 191 194 194 193 194 198 196 197 176 177 202 239 255 277
244 235 226 217 214 211 206 201 200 202 198 199 203 204 203 202 204 199 196 197 200 201 195 195 196 195 193 192 190 194 196 195 200 203 200 202 208 193 187 189 197 256 279
266 255 242 223 216 214 210 206 203 203 201 201 203 204 202 202 203 198 196 199 199 193 188 191 194 194 192 192 188 197 198 195 202 206 204 208 209 201 206 200 191 206 257
306 293 267 237 224 219 214 209 207 204 202 201 202 204 203 203 202 196 197 199 196 187 185 189 192 193 192 190 190 195 195 196 203 202 202 209 209 206 204 205 206 206 217
311 307 296 269 231 221 213 209 207 205 202 200 201 201 203 202 199 199 199 198 192 187 188 189 191 193 194 192 194 198 193 199 203 199 203 212 203 205 207 202 203 210 206
311 307 303 299 270 231 221 211 206 205 205 202 201 201 201 199 198 200 199 194 191 190 189 187 189 193 194 193 195 199 197 199 203 203 203 211 202 206 206 203 211 217 212
327 328 327 317 295 258 237 223 211 205 204 200 199 199 197 196 199 200 195 192 190 188 186 186 191 193 194 194 197 197 198 200 203 202 204 206 199 209 208 207 214 217 213
325 329 327 326 314 285 253 237 223 209 199 197 198 198 198 198 199 197 192 190 189 187 188 189 192 192 192 193 193 193 195 198 200 201 202 202 200 207 205 208 211 205 201
329 329 327 324 323 310 289 260 237 217 199 193 198 200 198 195 192 190 189 187 186 188 187 186 188 187 189 192 189 190 192 193 195 197 199 200 197 200 198 198 196 188 193
323 326 327 325 322 315 302 284 254 228 201 194 198 195 189 188 188 188 184 182 184 184 183 186 187 188 192 187 183 184 188 190 191 192 190 186 186 190 190 188 182 179 185
316 316 317 316 313 308 300 280 253 222 201 196 192 188 183 185 187 182 179 182 183 181 184 186 186 190 190 180 178 178 181 184 188 186 180 177 177 175 174 172 164 168 171
314 313 312 310 309 308 307 293 257 204 194 190 186 182 179 180 177 177 181 182 180 182 185 186 186 186 185 177 176 173 177 179 182 182 179 176 173 172 162 153 150 153 164
304 302 297 296 302 304 307 301 266 202 186 187 186 183 179 176 175 178 180 179 176 179 181 181 181 183 183 175 171 164 171 173 176 174 172 170 170 169 158 152 151 144 137
312 310 307 306 310 307 311 298 259 202 202 200 193 183 176 174 178 180 175 168 170 174 171 173 178 179 179 171 167 162 168 169 168 162 166 169 169 167 161 161 162 167 173
309 313 317 313 310 311 313 305 267 233 224 194 179 175 172 172 172 167 163 160 159 162 166 168 172 175 173 168 167 165 171 170 165 164 167 171 166 164 163 162 169 171 153
314 320 320 314 315 318 317 309 281 259 205 167 168 168 162 158 157 157 157 158 160 163 164 162 160 163 164 165 169 168 168 163 163 166 164 163 159 158 156 157 151 140 131
312 318 312 313 317 320 316 296 293 275 183 162 168 164 156 157 160 161 160 159 162 165 166 165 165 162 158 163 164 163 162 158 156 153 152 150 149 147 148 146 141 136 133
306 314 316 317 317 318 314 299 296 266 182 173 169 162 160 157 158 160 162 165 170 168 166 167 167 162 159 159 159 157 153 149 145 140 140 137 134 131 131 133 133 132 142
300 302 304 307 307 313 313 315 311 275 183 173 168 164 162 159 157 156 165 170 179 177 172 174 171 168 174 176 164 158 158 157 150 139 129 129 136 138 132 126 124 126 130
294 297 300 305 309 314 312 312 309 273 190 178 171 166 161 157 154 147 126 114 155 159 163 167 167 167 161 158 159 157 154 150 147 138 146 153 156 159 158 154 145 141 142
Height
1421 1425 1429 1433 1438 1442 1446 1450 1455 1460 1465 1469 1473 1477 1481 1486 1490 1494 1498 1503 1506 1510 1513 1516 1519 1521 1524 1526 1528 1530 1532 1533 1535 1536 1536 1536 1536 1536 1537 1537 1536 1536 1536
1416 1420 1423 1428 1432 1436 1440 1445 1450 1455 1459 1463 1467 1472 1477 1482 1486 1491 1495 1499 1503 1506 1509 1512 1515 1518 1521 1523 1526 1528 1529 1531 1533 1534 1534 1534 1535 1534 1534 1534 1534 1534 1534
1410 1413 1417 1421 1425 1429 1433 1438 1443 1448 1453 1458 1464 1470 1475 1479 1483 1486 1489 1494 1498 1502 1505 1509 1512 1515 1517 1520 1522 1525 1526 1528 1530 1531 1533 1533 1531 1531 1531 1531 1532 1532 1531
1405 1407 1411 1414 1418 1422 1427 1432 1437 1442 1448 1453 1458 1462 1466 1469 1473 1479 1484 1488 1493 1497 1501 1504 1508 1511 1513 1516 1519 1521 1523 1525 1526 1528 1529 1531 1530 1530 1529 1529 1529 1529 1529
1399 1401 1404 1408 1412 1416 1420 1425 1431 1436 1442 1447 1451 1456 1460 1465 1470 1475 1479 1484 1488 1492 1496 1500 1503 1506 1509 1512 1515 1517 1519 1521 1523 1524 1525 1527 1527 1528 1527 1526 1526 1526 1526
1393 1395 1399 1402 1406 1410 1414 1419 1424 1429 1435 1440 1445 1450 1454 1459 1464 1469 1473 1478 1482 1486 1490 1494 1498 1501 1504 1507 1510 1513 1515 1517 1519 1520 1521 1523 1523 1524 1524 1523 1522 1522 1522
1388 1390 1392 1395 1399 1403 1408 1412 1417 1422 1428 1433 1438 1443 1448 1453 1457 1462 1467 1471 1475 1479 1483 1488 1491 1495 1498 1502 1505 1508 1510 1512 1514 1516 1517 1519 1520 1521 1521 1521 1520 1518 1517
1384 1385 1387 1389 1392 1396 1401 1405 1410 1415 1420 1426 1431 1436 1441 1447 1451 1456 1461 1465 1469 1473 1478 1482 1486 1489 1493 1497 1500 1503 1505 1507 1509 1511 1513 1514 1515 1517 1517 1518 1517 1515 1513
1380 1381 1382 1384 1386 1390 1394 1398 1403 1408 1413 1418 1423 1428 1434 1439 1444 1449 1454 1459 1463 1468 1473 1477 1480 1484 1488 1491 1494 1497 1499 1502 1504 1506 1508 1509 1511 1512 1513 1513 1513 1513 1510
1378 1377 1378 1379 1381 1384 1388 1392 1396 1400 1405 1410 1416 1421 1426 1431 1437 1442 1447 1452 1457 1462 1466 1470 1474 1478 1482 1485 1488 1491 1494 1497 1499 1501 1503 1504 1506 1507 1508 1508 1508 1508 1507
1376 1375 1375 1375 1377 1379 1382 1385 1389 1394 1399 1403 1409 1414 1419 1424 1430 1435 1440 1445 1450 1455 1460 1464 1468 1472 1476 1479 1482 1485 1488 1491 1493 1495 1497 1499 1501 1502 1503 1503 1503 1503 1502
1374 1373 1372 1372 1372 1374 1376 1379 1383 1387 1392 1397 1402 1407 1412 1417 1423 1428 1433 1439 1444 1448 1453 1458 1462 1466 1469 1473 1476 1479 1482 1485 1487 1490 1492 1493 1495 1496 1497 1498 1498 1497 1497
1371 1370 1369 1368 1368 1370 1372 1374 1377 1381 1386 1390 1395 1400 1405 1410 1415 1421 1426 1432 1437 1442 1447 1451 1455 1459 1463 1466 1470 1473 1476 1479 1481 1484 1486 1488 1490 1490 1491 1492 1492 1492 1492
1370 1367 1366 1365 1365 1366 1367 1369 1372 1375 1379 1384 1388 1392 1397 1402 1408 1414 1419 1425 1430 1435 1440 1444 1449 1453 1457 1460 1464 1467 1470 1473 1476 1478 1480 1482 1484 1485 1486 1486 1486 1487 1486
1368 1366 1364 1363 1362 1362 1363 1364 1366 1370 1373 1378 1381 1386 1391 1396 1401 1407 1412 1418 1423 1428 1433 1438 1443 1447 1451 1454 1458 1461 1464 1467 1470 1472 1475 1476 1478 1479 1481 1481 1481 1481 1481
1368 1365 1363 1361 1360 1359 1359 1360 1362 1365 1368 1371 1375 1380 1385 1390 1395 1400 1406 1411 1417 1422 1427 1432 1436 1440 1444 1448 1452 1456 1459 1462 1464 1467 1469 1471 1473 1474 1475 1476 1476 1476 1476
1366 1363 1360 1359 1358 1357 1356 1356 1358 1360 1363 1366 1370 1374 1379 1384 1389 1395 1400 1405 1410 1416 1421 1425 1430 1434 1439 1443 1447 1451 1454 1456 1459 1461 1464 1466 1467 1469 1470 1471 1471 1471 1471
1364 1361 1359 1356 1355 1353 1353 1353 1354 1356 1358 1361 1365 1369 1374 1378 1384 1389 1394 1399 1405 1410 1415 1420 1424 1429 1433 1438 1441 1445 1449 1451 1454 1456 1459 1460 1462 1463 1465 1466 1466 1466 1466
1363 1360 1357 1354 1352 1351 1350 1350 1350 1352 1354 1356 1360 1365 1369 1374 1378 1383 1388 1394 1399 1404 1409 1414 1419 1423 1427 1432 1436 1440 1443 1446 1449 1451 1453 1455 1457 1459 1460 1461 1461 1462 1462
1360 1357 1354 1351 1349 1348 1347 1347 1347 1348 1350 1353 1356 1361 1365 1369 1374 1379 1384 1389 1394 1399 1404 1409 1414 1418 1422 1426 1431 1435 1438 1441 1444 1446 1448 1451 1453 1454 1455 1456 1457 1457 1458
1357 1354 1351 1348 1347 1346 1345 1344 1344 1345 1347 1350 1353 1357 1361 1365 1370 1375 1379 1384 1389 1395 1399 1404 1409 1413 1417 1421 1425 1429 1433 1436 1438 1441 1443 1446 1448 1450 1451 1452 1453 1454 1455
1354 1351 1348 1346 1345 1344 1342 1341 1341 1343 1345 1347 1349 1353 1357 1362 1366 1371 1375 1380 1385 1390 1394 1399 1404 1408 1413 1417 1420 1424 1428 1431 1434 1436 1439 1441 1444 1446 1447 1448 1449 1450 1451
1351 1349 1346 1344 1342 1341 1340 1339 1339 1340 1341 1343 1346 1350 1354 1358 1363 1367 1371 1376 1380 1384 1389 1394 1398 1403 1407 1412 1416 1419 1423 1427 1430 1432 1435 1438 1440 1442 1443 1445 1446 1447 1447
1348 1346 1344 1341 1339 1338 1337 1337 1337 1338 1339 1340 1343 1347 1350 1354 1358 1363 1367 1371 1375 1379 1383 1388 1393 1397 1402 1406 1410 1414 1418 1422 1425 1428 1431 1434 1436 1438 1440 1441 1442 1443 1443
1345 1343 1341 1338 1336 1335 1333 1333 1334 1335 1336 1338 1340 1344 1347 1351 1354 1358 1363 1367 1371 1375 1379 1383 1388 1392 1396 1401 1406 1409 1413 1417 1420 1424 1427 1430 1432 1434 1436 1437 1438 1439 1440
1340 1339 1337 1335 1333 1331 1330 1331 1331 1332 1333 1335 1337 1340 1343 1347 1351 1355 1359 1364 1368 1372 1377 1381 1385 1389 1394 1398 1402 1406 1410 1414 1417 1420 1422 1425 1427 1430 1431 1433 1434 1436 1436